• In Uzbekistan
  • List of Countries
  • For 7 days
  • Water Temperature
  • Satellite Maps
  • Weather Map
  • Weather Widgets
  • user-avatar
    Login

    Hourly Weather Hurghada

    Today, 23 November, Thursday

    Time Temperature Precipitation Wind Pressure Humidity
    00:00 +10°C° 0 mm 4 mps 684 mmHg 68%
    01:00 +8°C° 0 mm 4 mps 684 mmHg 71%
    02:00 +8°C° 0 mm 4 mps 684 mmHg 74%
    03:00 +7°C° 0 mm 4 mps 684 mmHg 76%
    04:00 +7°C° 0 mm 4 mps 684 mmHg 78%
    05:00 +7°C° 0 mm 4 mps 684 mmHg 80%
    06:00 +8°C° 0 mm 4 mps 685 mmHg 75%
    07:00 +10°C° 0 mm 4 mps 685 mmHg 70%
    08:00 +9°C° 0 mm 5 mps 685 mmHg 65%
    09:00 +12°C° 0 mm 5 mps 686 mmHg 56%
    10:00 +13°C° 0 mm 5 mps 686 mmHg 48%
    11:00 +15°C° 0 mm 5 mps 686 mmHg 40%
    12:00 +15°C° 0 mm 5 mps 686 mmHg 37%
    13:00 +16°C° 0 mm 5 mps 686 mmHg 35%
    14:00 +17°C° 0 mm 5 mps 685 mmHg 33%
    15:00 +16°C° 0 mm 5 mps 685 mmHg 36%
    16:00 +15°C° 0 mm 4 mps 685 mmHg 39%
    17:00 +14°C° 0 mm 4 mps 685 mmHg 43%
    18:00 +13°C° 0 mm 4 mps 685 mmHg 46%
    19:00 +12°C° 0 mm 4 mps 685 mmHg 50%
    20:00 +11°C° 0 mm 4 mps 685 mmHg 53%
    21:00 +11°C° 0 mm 4 mps 685 mmHg 55%
    22:00 +10°C° 0 mm 4 mps 685 mmHg 58%
    23:00 +10°C° 0 mm 3 mps 685 mmHg 60%

    Tomorrow, 24 November, Friday

    Time Temperature Precipitation Wind Pressure Humidity
    00:00 +9°C° 0 mm 3 mps 685 mmHg 63%
    01:00 +9°C° 0 mm 3 mps 685 mmHg 66%
    02:00 +9°C° 0 mm 3 mps 684 mmHg 70%
    03:00 +8°C° 0 mm 3 mps 684 mmHg 72%
    04:00 +8°C° 0 mm 3 mps 684 mmHg 75%
    05:00 +8°C° 0 mm 3 mps 684 mmHg 78%
    06:00 +9°C° 0 mm 3 mps 684 mmHg 73%
    07:00 +10°C° 0 mm 3 mps 685 mmHg 69%
    08:00 +11°C° 0 mm 3 mps 686 mmHg 64%
    09:00 +13°C° 0 mm 3 mps 686 mmHg 56%
    10:00 +14°C° 0 mm 3 mps 686 mmHg 47%
    11:00 +17°C° 0 mm 4 mps 686 mmHg 39%
    12:00 +17°C° 0 mm 3 mps 686 mmHg 37%
    13:00 +18°C° 0 mm 3 mps 686 mmHg 34%
    14:00 +19°C° 0 mm 3 mps 685 mmHg 32%
    15:00 +18°C° 0 mm 3 mps 685 mmHg 36%
    16:00 +17°C° 0 mm 3 mps 685 mmHg 39%
    17:00 +16°C° 0 mm 3 mps 685 mmHg 43%
    18:00 +14°C° 0 mm 3 mps 685 mmHg 47%
    19:00 +13°C° 0 mm 3 mps 685 mmHg 51%
    20:00 +13°C° 0 mm 2 mps 685 mmHg 55%
    21:00 +13°C° 0 mm 2 mps 685 mmHg 56%
    22:00 +12°C° 0 mm 2 mps 685 mmHg 56%
    23:00 +12°C° 0 mm 2 mps 685 mmHg 56%

    Day after tomorrow, 25 November, Saturday

    Time Temperature Precipitation Wind Pressure Humidity
    00:00 +10°C° 0 mm 2 mps 685 mmHg 55%
    01:00 +10°C° 0 mm 2 mps 684 mmHg 53%
    02:00 +10°C° 0 mm 2 mps 684 mmHg 52%
    03:00 +10°C° 0 mm 2 mps 684 mmHg 51%
    04:00 +10°C° 0 mm 2 mps 684 mmHg 49%
    05:00 +10°C° 0 mm 2 mps 684 mmHg 48%
    06:00 +12°C° 0 mm 2 mps 684 mmHg 44%
    07:00 +13°C° 0 mm 2 mps 685 mmHg 40%
    08:00 +15°C° 0 mm 2 mps 685 mmHg 37%
    09:00 +16°C° 0 mm 2 mps 685 mmHg 33%
    10:00 +17°C° 0 mm 2 mps 686 mmHg 30%
    11:00 +19°C° 0 mm 2 mps 686 mmHg 26%
    12:00 +19°C° 0 mm 2 mps 685 mmHg 25%
    13:00 +20°C° 0 mm 2 mps 685 mmHg 23%
    14:00 +20°C° 0 mm 2 mps 685 mmHg 21%
    15:00 +19°C° 0 mm 2 mps 684 mmHg 24%
    16:00 +18°C° 0 mm 2 mps 684 mmHg 26%
    17:00 +17°C° 0 mm 2 mps 684 mmHg 29%
    18:00 +16°C° 0 mm 2 mps 684 mmHg 31%
    19:00 +16°C° 0 mm 2 mps 684 mmHg 33%
    20:00 +15°C° 0 mm 2 mps 685 mmHg 36%
    21:00 +14°C° 0 mm 2 mps 684 mmHg 36%
    22:00 +14°C° 0 mm 2 mps 684 mmHg 37%
    23:00 +13°C° 0 mm 2 mps 684 mmHg 37%

    26 November, Sunday

    Time Temperature Precipitation Wind Pressure Humidity
    00:00 +13°C° 0 mm 2 mps 684 mmHg 38%
    01:00 +11°C° 0 mm 3 mps 684 mmHg 38%
    02:00 +11°C° 0 mm 3 mps 683 mmHg 39%
    03:00 +11°C° 0 mm 3 mps 683 mmHg 39%
    04:00 +10°C° 0 mm 3 mps 683 mmHg 40%
    05:00 +10°C° 0 mm 3 mps 683 mmHg 41%
    06:00 +11°C° 0 mm 3 mps 684 mmHg 39%
    07:00 +12°C° 0 mm 3 mps 685 mmHg 37%
    08:00 +14°C° 0 mm 3 mps 685 mmHg 34%
    09:00 +15°C° 0 mm 4 mps 686 mmHg 33%
    10:00 +18°C° 0 mm 4 mps 686 mmHg 31%
    11:00 +19°C° 0 mm 4 mps 686 mmHg 29%
    12:00 +20°C° 0 mm 5 mps 686 mmHg 29%
    13:00 +20°C° 0 mm 5 mps 685 mmHg 29%
    14:00 +21°C° 0 mm 6 mps 685 mmHg 29%
    15:00 +19°C° 0 mm 6 mps 685 mmHg 33%
    16:00 +17°C° 0 mm 6 mps 685 mmHg 37%
    17:00 +16°C° 0 mm 6 mps 685 mmHg 42%
    18:00 +15°C° 0 mm 5 mps 685 mmHg 46%
    19:00 +14°C° 0 mm 4 mps 685 mmHg 50%
    20:00 +13°C° 0 mm 4 mps 686 mmHg 54%
    21:00 +13°C° 0 mm 4 mps 685 mmHg 55%
    22:00 +12°C° 0 mm 3 mps 685 mmHg 57%
    23:00 +12°C° 0 mm 3 mps 685 mmHg 58%

    27 November, Monday

    Time Temperature Precipitation Wind Pressure Humidity
    00:00 +11°C° 0 mm 3 mps 685 mmHg 60%
    01:00 +11°C° 0 mm 3 mps 685 mmHg 61%
    02:00 +10°C° 0 mm 3 mps 685 mmHg 62%
    03:00 +10°C° 0 mm 3 mps 685 mmHg 64%
    04:00 +10°C° 0 mm 3 mps 685 mmHg 65%
    05:00 +9°C° 0 mm 3 mps 685 mmHg 67%
    06:00 +10°C° 0 mm 3 mps 685 mmHg 63%
    07:00 +11°C° 0 mm 3 mps 686 mmHg 59%
    08:00 +12°C° 0 mm 3 mps 686 mmHg 55%
    09:00 +14°C° 0 mm 4 mps 687 mmHg 51%
    10:00 +15°C° 0 mm 4 mps 687 mmHg 47%
    11:00 +18°C° 0 mm 4 mps 687 mmHg 42%
    12:00 +18°C° 0 mm 4 mps 686 mmHg 39%
    13:00 +19°C° 0 mm 4 mps 686 mmHg 37%
    14:00 +19°C° 0 mm 4 mps 686 mmHg 34%
    15:00 +18°C° 0 mm 4 mps 686 mmHg 36%
    16:00 +17°C° 0 mm 4 mps 686 mmHg 38%
    17:00 +15°C° 0 mm 4 mps 685 mmHg 41%
    18:00 +14°C° 0 mm 3 mps 686 mmHg 44%
    19:00 +13°C° 0 mm 3 mps 686 mmHg 48%
    20:00 +12°C° 0 mm 3 mps 686 mmHg 51%
    21:00 +12°C° 0 mm 3 mps 686 mmHg 52%
    22:00 +11°C° 0 mm 3 mps 685 mmHg 52%
    23:00 +11°C° 0 mm 3 mps 685 mmHg 53%

    28 November, Tuesday

    Time Temperature Precipitation Wind Pressure Humidity
    00:00 +10°C° 0 mm 2 mps 685 mmHg 54%
    01:00 +10°C° 0 mm 2 mps 685 mmHg 55%
    02:00 +10°C° 0 mm 2 mps 684 mmHg 56%
    03:00 +9°C° 0 mm 2 mps 684 mmHg 59%
    04:00 +9°C° 0 mm 2 mps 684 mmHg 61%
    05:00 +9°C° 0 mm 2 mps 684 mmHg 64%
    06:00 +10°C° 0 mm 2 mps 685 mmHg 59%
    07:00 +12°C° 0 mm 2 mps 685 mmHg 54%
    08:00 +14°C° 0 mm 2 mps 686 mmHg 50%
    09:00 +15°C° 0 mm 2 mps 686 mmHg 45%
    10:00 +16°C° 0 mm 2 mps 686 mmHg 40%
    11:00 +18°C° 0 mm 2 mps 686 mmHg 35%
    12:00 +19°C° 0 mm 2 mps 686 mmHg 33%
    13:00 +19°C° 0 mm 2 mps 685 mmHg 30%
    14:00 +20°C° 0 mm 2 mps 685 mmHg 27%
    15:00 +19°C° 0 mm 2 mps 685 mmHg 31%
    16:00 +18°C° 0 mm 2 mps 685 mmHg 35%
    17:00 +16°C° 0 mm 2 mps 685 mmHg 39%
    18:00 +16°C° 0 mm 2 mps 685 mmHg 43%
    19:00 +15°C° 0 mm 2 mps 685 mmHg 48%
    20:00 +14°C° 0 mm 2 mps 685 mmHg 52%
    21:00 +13°C° 0 mm 2 mps 685 mmHg 54%
    22:00 +13°C° 0 mm 2 mps 685 mmHg 56%
    23:00 +12°C° 0 mm 2 mps 685 mmHg 58%
    Show more